History for DABS

Tebessa, Algeria

Daily Weekly Monthly
Daily Summary for Wednesday, September 28, 2016
  Actual: Average: Record:
Temperature
Mean Temperature: 60 °F / 15 °C - :  
Max Temperature: 71 °F / 21 °C - - ()
Min Temperature: 49 °F / 9 °C - - ()
Degree Days
Heating Degree Days: 5    
Growing Degree Days 10 (Base 50)    
Moisture
Dew Point 53 °F / 12 °C    
Average Humidity 76    
Maximum Humidity 94    
Minimum Humidity 31    
Precipitation
Precipitation 0.08 in / 2.0 cm - - ()
Sea Level Pressure
Sea Level Pressure 30.29 in / 1025.70 hPa   
Wind
Wind Speed 2 mph / 4 km/h ()  
Max Wind Speed 20 mph / 32 km/h   
Max Gust Speed -   
Visibility 6.2 miles / 10.0 kilometers   
Events Rain   

Key: T is trace of precipitation, MM is missing value
Source: Averaged Metar Reports

Graphs

Observations

History Graphs Observations

Obs Go Here...

Features

Weather Apps

WunderRadio

Weather Underground Apps
Check out our wide variety of mobile and setup applications.

Weather Underground Applications

Top of Page

© Copyright 2016
The Weather Company, LLC
Time(CET)TemperatureDew PointHumidity Sea Level Pressure Visibility Wind DirectionWind SpeedGust SpeedPrecipitationEvents Conditions
12:00 AM 57.2 °F / 14.0 °C 50.0 °F / 10.0 °C 77% 30.27 in / 1025 hPa 6.2 miles / 10.0 kilometers Calm Calm - N/A   Scattered Clouds
12:30 AM 57.2 °F / 14.0 °C 50.0 °F / 10.0 °C 77% 30.27 in / 1025 hPa 6.2 miles / 10.0 kilometers Calm Calm - N/A   Scattered Clouds
1:00 AM 55 °F / 13 °C 53 °F / 11 °C 88%  in /  hPa 6 miles / 10 kilometers Calm Calm - -   Mostly Cloudy
1:00 AM 55.4 °F / 13.0 °C 51.8 °F / 11.0 °C 88% 30.30 in / 1026 hPa 6.2 miles / 10.0 kilometers Calm Calm - N/A   Scattered Clouds
1:30 AM 55.4 °F / 13.0 °C 51.8 °F / 11.0 °C 88% 30.30 in / 1026 hPa 6.2 miles / 10.0 kilometers Calm Calm - N/A   Scattered Clouds
2:00 AM 55.4 °F / 13.0 °C 53.6 °F / 12.0 °C 94% 30.30 in / 1026 hPa 5.0 miles / 8.0 kilometers Calm Calm - N/A   Scattered Clouds
2:30 AM 55.4 °F / 13.0 °C 53.6 °F / 12.0 °C 94% 30.30 in / 1026 hPa 6.2 miles / 10.0 kilometers Calm Calm - N/A   Scattered Clouds
3:00 AM 53.6 °F / 12.0 °C 51.8 °F / 11.0 °C 94% 30.30 in / 1026 hPa 5.0 miles / 8.0 kilometers Calm Calm - N/A   Scattered Clouds
3:30 AM 53.6 °F / 12.0 °C 51.8 °F / 11.0 °C 94% 30.30 in / 1026 hPa 6.2 miles / 10.0 kilometers Calm Calm - N/A   Scattered Clouds
4:00 AM 54 °F / 12 °C 53 °F / 11 °C 93%  in /  hPa 5 miles / 8 kilometers Calm Calm - -   Scattered Clouds
4:00 AM 53.6 °F / 12.0 °C 51.8 °F / 11.0 °C 94% 30.27 in / 1025 hPa 5.0 miles / 8.0 kilometers Calm Calm - N/A   Partly Cloudy
4:30 AM 53.6 °F / 12.0 °C 51.8 °F / 11.0 °C 94% 30.24 in / 1024 hPa 5.0 miles / 8.0 kilometers Calm Calm - N/A   Partly Cloudy
5:00 AM 53.6 °F / 12.0 °C 51.8 °F / 11.0 °C 94% 30.24 in / 1024 hPa 5.0 miles / 8.0 kilometers Calm Calm - N/A   Partly Cloudy
5:30 AM 53.6 °F / 12.0 °C 51.8 °F / 11.0 °C 94% 30.24 in / 1024 hPa 5.0 miles / 8.0 kilometers Calm Calm - N/A   Partly Cloudy
6:00 AM 50.0 °F / 10.0 °C 48.2 °F / 9.0 °C 94% 30.27 in / 1025 hPa 6.2 miles / 10.0 kilometers Calm Calm - N/A   Scattered Clouds
6:30 AM 50.0 °F / 10.0 °C 48.2 °F / 9.0 °C 94% 30.27 in / 1025 hPa 5.0 miles / 8.0 kilometers Calm Calm - N/A   Mostly Cloudy
7:00 AM 54 °F / 12 °C 51 °F / 11 °C 87%  in /  hPa 5 miles / 8 kilometers Calm Calm - -   Mostly Cloudy
7:00 AM 53.6 °F / 12.0 °C 51.8 °F / 11.0 °C 94% 30.27 in / 1025 hPa 5.0 miles / 8.0 kilometers Calm Calm - N/A   Mostly Cloudy
7:30 AM 53.6 °F / 12.0 °C 51.8 °F / 11.0 °C 94% 30.30 in / 1026 hPa 6.2 miles / 10.0 kilometers Calm Calm - N/A   Mostly Cloudy
8:00 AM 53.6 °F / 12.0 °C 51.8 °F / 11.0 °C 94% 30.30 in / 1026 hPa 5.0 miles / 8.0 kilometers Calm Calm - N/A   Mostly Cloudy
8:30 AM 55.4 °F / 13.0 °C 51.8 °F / 11.0 °C 88% 30.27 in / 1025 hPa 5.0 miles / 8.0 kilometers Calm Calm - N/A   Mostly Cloudy
9:00 AM 59.0 °F / 15.0 °C 53.6 °F / 12.0 °C 82% 30.30 in / 1026 hPa 6.2 miles / 10.0 kilometers Calm Calm - N/A   Scattered Clouds
9:30 AM 60.8 °F / 16.0 °C 53.6 °F / 12.0 °C 77% 30.30 in / 1026 hPa 6.2 miles / 10.0 kilometers Calm Calm - N/A   Scattered Clouds
10:00 AM 65 °F / 18 °C 55 °F / 13 °C 63%  in /  hPa 9 miles / 15 kilometers Calm Calm - -   Partly Cloudy
10:00 AM 64.4 °F / 18.0 °C 55.4 °F / 13.0 °C 73% 30.30 in / 1026 hPa 6.2 miles / 10.0 kilometers Calm Calm - N/A   Scattered Clouds
10:30 AM 66.2 °F / 19.0 °C 55.4 °F / 13.0 °C 68% 30.30 in / 1026 hPa 6.2 miles / 10.0 kilometers Calm Calm - N/A   Scattered Clouds
11:00 AM 66.2 °F / 19.0 °C 55.4 °F / 13.0 °C 68% 30.30 in / 1026 hPa 6.2 miles / 10.0 kilometers NNW 2.3 mph / 3.7 km/h - N/A   Scattered Clouds
11:30 AM 66.2 °F / 19.0 °C 55.4 °F / 13.0 °C 68% 30.30 in / 1026 hPa 6.2 miles / 10.0 kilometers NNW 4.6 mph / 7.4 km/h - N/A Rain Light Rain
12:00 PM 62.6 °F / 17.0 °C 60.8 °F / 16.0 °C 94% 30.30 in / 1026 hPa 6.2 miles / 10.0 kilometers West 6.9 mph / 11.1 km/h - N/A   Mostly Cloudy
12:30 PM 62.6 °F / 17.0 °C 59.0 °F / 15.0 °C 88% 30.30 in / 1026 hPa 6.2 miles / 10.0 kilometers NW 4.6 mph / 7.4 km/h - N/A   Mostly Cloudy
1:00 PM 67 °F / 19 °C 59 °F / 15 °C 67%  in /  hPa 9 miles / 15 kilometers WNW 4.6 mph / 7.4 km/h - -   Partly Cloudy
1:00 PM 66.2 °F / 19.0 °C 59.0 °F / 15.0 °C 78% 30.30 in / 1026 hPa 6.2 miles / 10.0 kilometers WNW 4.6 mph / 7.4 km/h - N/A   Mostly Cloudy
1:30 PM 68.0 °F / 20.0 °C 59.0 °F / 15.0 °C 73% 30.30 in / 1026 hPa 6.2 miles / 10.0 kilometers Calm Calm - N/A   Mostly Cloudy
2:00 PM 68.0 °F / 20.0 °C 53.6 °F / 12.0 °C 60% 30.27 in / 1025 hPa 6.2 miles / 10.0 kilometers Calm Calm - N/A   Mostly Cloudy
2:30 PM 68.0 °F / 20.0 °C 53.6 °F / 12.0 °C 60% 30.27 in / 1025 hPa 6.2 miles / 10.0 kilometers East 9.2 mph / 14.8 km/h - N/A   Mostly Cloudy
3:00 PM 68.0 °F / 20.0 °C 53.6 °F / 12.0 °C 60% 30.27 in / 1025 hPa 6.2 miles / 10.0 kilometers East 9.2 mph / 14.8 km/h - N/A   Mostly Cloudy
3:30 PM 68.0 °F / 20.0 °C 53.6 °F / 12.0 °C 60% 30.27 in / 1025 hPa 6.2 miles / 10.0 kilometers SE 13.8 mph / 22.2 km/h - N/A   Mostly Cloudy
4:00 PM 70 °F / 21 °C 46 °F / 8 °C 31%  in /  hPa 9 miles / 15 kilometers SSE 16.1 mph / 25.9 km/h - -   Partly Cloudy
4:00 PM 69.8 °F / 21.0 °C 46.4 °F / 8.0 °C 43% 30.27 in / 1025 hPa 6.2 miles / 10.0 kilometers SSE 16.1 mph / 25.9 km/h - N/A   Scattered Clouds
4:30 PM 69.8 °F / 21.0 °C 46.4 °F / 8.0 °C 43% 30.27 in / 1025 hPa 6.2 miles / 10.0 kilometers East 13.8 mph / 22.2 km/h - N/A   Scattered Clouds
5:00 PM 69.8 °F / 21.0 °C 50.0 °F / 10.0 °C 49% 30.27 in / 1025 hPa 6.2 miles / 10.0 kilometers East 19.6 mph / 31.5 km/h - N/A   Scattered Clouds
5:30 PM 69.8 °F / 21.0 °C 50.0 °F / 10.0 °C 49% 30.27 in / 1025 hPa 6.2 miles / 10.0 kilometers East 16.1 mph / 25.9 km/h - N/A   Scattered Clouds
6:00 PM 66.2 °F / 19.0 °C 53.6 °F / 12.0 °C 64% 30.27 in / 1025 hPa 6.2 miles / 10.0 kilometers East 13.8 mph / 22.2 km/h - N/A   Scattered Clouds
6:30 PM 66.2 °F / 19.0 °C 53.6 °F / 12.0 °C 64% 30.27 in / 1025 hPa 6.2 miles / 10.0 kilometers East 9.2 mph / 14.8 km/h - N/A   Scattered Clouds
7:00 PM 64 °F / 18 °C 54 °F / 12 °C 62%  in /  hPa 9 miles / 15 kilometers East 11.5 mph / 18.5 km/h - -   Partly Cloudy
7:00 PM 64.4 °F / 18.0 °C 53.6 °F / 12.0 °C 68% 30.30 in / 1026 hPa 6.2 miles / 10.0 kilometers East 11.5 mph / 18.5 km/h - N/A   Scattered Clouds
7:30 PM 62.6 °F / 17.0 °C 53.6 °F / 12.0 °C 72% 30.30 in / 1026 hPa 6.2 miles / 10.0 kilometers ESE 6.9 mph / 11.1 km/h - N/A   Scattered Clouds
8:00 PM 62.6 °F / 17.0 °C 53.6 °F / 12.0 °C 72% 30.30 in / 1026 hPa 6.2 miles / 10.0 kilometers ESE 9.2 mph / 14.8 km/h - N/A   Scattered Clouds
8:30 PM 62.6 °F / 17.0 °C 53.6 °F / 12.0 °C 72% 30.30 in / 1026 hPa 6.2 miles / 10.0 kilometers ESE 4.6 mph / 7.4 km/h - N/A   Scattered Clouds
9:00 PM 60.8 °F / 16.0 °C 51.8 °F / 11.0 °C 72% 30.33 in / 1027 hPa 6.2 miles / 10.0 kilometers ESE 4.6 mph / 7.4 km/h - N/A   Scattered Clouds
9:30 PM 60.8 °F / 16.0 °C 51.8 °F / 11.0 °C 72% 30.36 in / 1028 hPa 6.2 miles / 10.0 kilometers ESE 4.6 mph / 7.4 km/h - N/A   Scattered Clouds
10:00 PM 58 °F / 14 °C 53 °F / 12 °C 79%  in /  hPa 9 miles / 15 kilometers ESE 2.3 mph / 3.7 km/h - -   Scattered Clouds
10:00 PM 59.0 °F / 15.0 °C 53.6 °F / 12.0 °C 82% 30.36 in / 1028 hPa 6.2 miles / 10.0 kilometers ESE 2.3 mph / 3.7 km/h - N/A   Partly Cloudy
10:30 PM 57.2 °F / 14.0 °C 51.8 °F / 11.0 °C 82% 30.36 in / 1028 hPa 6.2 miles / 10.0 kilometers ESE 4.6 mph / 7.4 km/h - N/A   Partly Cloudy
11:00 PM 57.2 °F / 14.0 °C 51.8 °F / 11.0 °C 82% 30.36 in / 1028 hPa 6.2 miles / 10.0 kilometers ESE 4.6 mph / 7.4 km/h - N/A   Partly Cloudy